Regional Weather Roundup
Issued by NWS

Home | Current Version | Previous Version | Graphics & Text | Print | Product List | Glossary On
Versions: 1 2 3 4 5 6 7 8 9 10 11 12 13 14 15 16 17 18 19 20 21 22 23 24 25 26 27 28 29 30 31 32 33 34 35 36 37 38 39 40 41 42 43 44 45 46 47 48 49 50
000
ASUS43 KOAX 250302
RWRNE

WEATHER ROUNDUP FOR NEBRASKA
NATIONAL WEATHER SERVICE OMAHA NE
1000 PM CDT SUN JUL 24 2016

NOTES: SATELLITE DATA IS BEING USED TO AUGMENT CLOUD COVER ABOVE
       12000 FEET.
       "FAIR" INDICATES FEW OR NO CLOUDS BELOW 12,000 FEET WITH NO
       SIGNIFICANT WEATHER AND/OR OBSTRUCTIONS TO VISIBILITY.

  * THESE STATIONS DO NOT REPORT WEATHER SUCH AS RAIN...SNOW OR FOG.

NEZ001>004-019>022-054>056-250400-
NEBRASKA PANHANDLE

CITY           SKY/WX    TMP DP  RH WIND       PRES   REMARKS
SCOTTSBLUFF    CLOUDY    71  55  56 SE9       30.14R
ALLIANCE       CLOUDY    71  54  54 E10       30.15R
CHADRON        CLOUDY    78  49  35 SE12      30.10R
KIMBALL        CLOUDY    62  57  84 S8        30.20R
SIDNEY         CLOUDY    65  56  72 S10       30.17R
$$

NEZ057>060-069>072-079>082-250400-
SOUTHWEST NEBRASKA

CITY           SKY/WX    TMP DP  RH WIND       PRES   REMARKS
NORTH PLATTE   MOCLDY    71  64  78 E6        30.13R
IMPERIAL       LGT RAIN  73  62  68 W5        30.23R
LEXINGTON      CLOUDY    73  64  73 NE6       30.12S
MCCOOK         CLOUDY    74  60  61 E5        30.13R
OGALLALA       CLOUDY    78  55  45 E7        30.14R
$$

NEZ005>010-023>029-035>040-094-250400-
NORTH CENTRAL NEBRASKA

CITY           SKY/WX    TMP DP  RH WIND       PRES   REMARKS
VALENTINE      CLEAR     74  52  46 NE6       30.12R
AINSWORTH      MOCLDY    73  60  63 SE7       30.14R
BROKEN BOW     CLOUDY    67  64  90 E3        30.13R
O`NEILL        CLOUDY    75  60  60 SE3       30.14R
ORD            PTCLDY    71  65  81 CALM      30.10R
THEDFORD       MOCLDY    74  58  57 SE8       30.16R
$$

NEZ041-046>049-061>064-073>077-083>087-250400-
SOUTH CENTRAL NEBRASKA

CITY           SKY/WX    TMP DP  RH WIND       PRES   REMARKS
GRAND ISLAND   PTCLDY    71  63  75 N6        30.10R
AURORA         CLEAR     70  66  86 N3        30.09R
HASTINGS       CLEAR     71  65  81 NE3       30.10R
HEBRON         CLEAR     70  64  80 CALM      30.06R
HOLDREGE       CLOUDY    71  65  80 E5        30.11R
KEARNEY *      CLOUDY    72  64  78 NE7       30.11S
YORK           CLEAR     68  64  88 N6        30.08R
$$

NEZ011>018-030>034-042>045-250400-
NORTHEAST NEBRASKA

CITY           SKY/WX    TMP DP  RH WIND       PRES   REMARKS
NORFOLK        MOCLDY    71  59  65 CALM      30.10R
ALBION         MOCLDY    70  63  78 N3        30.11R
BLAIR          CLEAR     74  67  77 N6        30.05R
FREMONT        CLEAR     74  65  74 CALM      30.06R
TEKAMAH        CLEAR     72  65  78 N10       30.05R
WAYNE          PTCLDY    66  64  92 CALM      30.10R
$$

NEZ050>053-065>068-078-088>093-250400-
SOUTHEAST NEBRASKA

CITY           SKY/WX    TMP DP  RH WIND       PRES   REMARKS
LINCOLN        CLEAR     77  66  68 CALM      30.04R
OMAHA EPPLEY   PTCLDY    74  68  81 N9        30.02R
BEATRICE       CLEAR     72  66  81 CALM      30.04R
FALLS CITY     CLOUDY    73  69  87 NW6       30.01R
NEBRASKA CITY  CLEAR     71  66  85 NW6       30.04R
PLATTSMOUTH    CLEAR     74  65  73 CALM      30.03R
$$

NEZ044-045-051>053-067-250400-
OMAHA AREA

CITY           SKY/WX    TMP DP  RH WIND       PRES   REMARKS
OMAHA EPPLEY   PTCLDY    74  68  81 N9        30.02R
BLAIR          CLEAR     74  67  77 N6        30.05R
FREMONT        CLEAR     74  65  74 CALM      30.06R
MILLARD        CLEAR     75  65  72 CALM      30.03R
OFFUTT AFB     CLEAR     73  66  78 N1        30.02R
PLATTSMOUTH    CLEAR     74  65  73 CALM      30.03R
WAHOO          FAIR      72  67  85 N7        30.05R
$$




USA.gov is the U.S. government's official web portal to all federal, state and local government web resources and services.